sat.trackr.live / text

‹ back to catalog

STARLINK-34895

NORAD 65349 · 2025-189AC

PAYLOAD ACTIVE UNKNOWN

§ Identity

Operator
Country
US
Launch date
2025-08-27
Launch site
AFETR
Launch vehicle
Mass (kg)
RCS (m²)

Purposes: comms

External: N2YO · Heavens-Above · Gunter

§ Orbital elements

Epoch: 2026-05-24T14:27:35.774496Z

Period
94.01 min
Inclination
53.1590°
Eccentricity
0.0001071
Mean motion
15.31700707 rev/d
Perigee alt
470.0 km
Apogee alt
471.5 km
Semi-major
6,848.9 km
B*
4.9307e-4
RAAN
213.8322°
Arg perigee
81.6031°
Mean anomaly
278.5091°
Rev number
4,269

§ Raw data

STARLINK-348951 65349U 25189AC  26144.60249739  .00014967  00000+0  49307-3 0  99912 65349  53.1590 213.8322 0001071  81.6031 278.5091 15.31700707 42695

JSON: /api/v1/satellites/65349 · /tle

For live sub-satellite position, see the globe view (requires WebGL).

§ Visibility from observer

Set your observer location to see the next 7 days of passes ≥ 10°. The values pass through the URL so the page stays shareable.

No JS? Fill the form by hand. The geolocation button needs JavaScript.